This is the latest recevied weather packets stored in our database for station/object DB0OHA-13. If no packets are shown the sender has not sent any weather packets the latest 10 day(s).
| Time | Temp. | Humidity | Pressure | Rain* | Wind** | Luminosity | Snow |
|---|---|---|---|---|---|---|---|
| 1777813873 | 21.67° C | 37% | 1012.3 hPa | 0 mm | - | 176 W/m² | - |
| 1777813273 | 21.67° C | 37% | 1012.4 hPa | 0 mm | - | 177 W/m² | - |
| 1777812073 | 21.67° C | 40% | 1012.6 hPa | 0 mm | - | 376 W/m² | - |
| 1777811473 | 21.67° C | 41% | 1012.7 hPa | 0 mm | - | 365 W/m² | - |
| 1777810873 | 21.67° C | 42% | 1012.8 hPa | 0 mm | - | 376 W/m² | - |
| 1777810272 | 21.67° C | 44% | 1012.8 hPa | 0 mm | - | 464 W/m² | - |
| 1777809672 | 21.67° C | 44% | 1012.9 hPa | 0 mm | - | 452 W/m² | - |
| 1777809072 | 21.67° C | 47% | 1012.9 hPa | 0 mm | - | 334 W/m² | - |
| 1777807872 | 21.11° C | 44% | 1012.9 hPa | 0 mm | - | 385 W/m² | - |
| 1777807272 | 21.11° C | 43% | 1013 hPa | 0 mm | - | 397 W/m² | - |
| 1777806672 | 21.11° C | 45% | 1013.1 hPa | 0 mm | - | 397 W/m² | - |
| 1777806072 | 20.56° C | 45% | 1013.1 hPa | 0 mm | - | 403 W/m² | - |
| 1777805472 | 20.56° C | 42% | 1013.3 hPa | 0 mm | - | 342 W/m² | - |
| 1777804871 | 20.56° C | 45% | 1013.4 hPa | 0 mm | - | 301 W/m² | - |
| 1777804272 | 20° C | 46% | 1013.5 hPa | 0 mm | - | 287 W/m² | - |
| 1777803672 | 20° C | 45% | 1013.6 hPa | 0 mm | - | 158 W/m² | - |
| 1777803071 | 20.56° C | 49% | 1013.5 hPa | 0 mm | - | 268 W/m² | - |
| 1777802471 | 20° C | 45% | 1013.6 hPa | 0 mm | - | 183 W/m² | - |
| 1777801871 | 20.56° C | 46% | 1013.8 hPa | 0 mm | - | 196 W/m² | - |
| 1777801271 | 20.56° C | 46% | 1013.9 hPa | 0 mm | - | 255 W/m² | - |
| 1777800671 | 21.11° C | 47% | 1013.7 hPa | 0 mm | - | 318 W/m² | - |
| 1777800071 | 21.67° C | 47% | 1013.7 hPa | 0 mm | - | 400 W/m² | - |
| 1777799471 | 21.67° C | 48% | 1013.7 hPa | 0 mm | - | 475 W/m² | - |
| 1777798871 | 21.67° C | 49% | 1013.8 hPa | 0 mm | - | 437 W/m² | - |
| 1777798271 | 21.11° C | 48% | 1013.6 hPa | 0 mm | - | 365 W/m² | - |
* Rain latest hour (hover to see other rain measurements)
** Current wind speed in m/s (hover to see current wind gust speed)